Regional Weather Roundup
Issued by NWS Northern Indiana

Home | Current Version | Previous Version | Graphics & Text | Print | Product List | Glossary On
Versions: 1 2 3 4 5 6 7 8 9 10 11 12 13 14 15 16 17 18 19 20 21 22 23 24 25 26 27 28 29 30 31 32 33 34 35 36 37 38 39 40 41 42 43 44 45 46 47 48 49 50
000
ASUS43 KIWX 291500
RWRIWX

KIWX WEATHER ROUNDUP
NATIONAL WEATHER SERVICE NORTHERN INDIANA
1100 AM EDT SAT AUG 29 2015

NOTE: "FAIR" INDICATES FEW OR NO CLOUDS BELOW 12,000 FEET WITH NO
SIGNIFICANT WEATHER AND/OR OBSTRUCTIONS TO VISIBILITY.

* THESE STATIONS ARE NOT UNDER NWS QUALITY CONTROL. THEY ALSO MAY NOT
  REPORT WEATHER SUCH AS PRECIPITATION OR FOG.

INZ001>027-291600-
NORTHERN INDIANA

CITY           SKY/WX    TMP DP  RH WIND       PRES   REMARKS
GARY*          CLOUDY    66  63  88 SE8       30.06F
KNOX*          CLOUDY    68  61  77 SE3       30.08S
SOUTH BEND     LGT RAIN  65  64  97 NE6       30.11R
ELKHART*       CLOUDY    66  63  88 CALM      30.10S
GOSHEN         CLOUDY    69  62  78 SE5       30.10S
MONTICELLO*    CLOUDY    71  65  80 S5        30.07S
WARSAW*        CLOUDY    72  63  73 SW3       30.10R
ANGOLA*        SUNNY     72  64  78 S3        30.11S
FORT WAYNE     CLOUDY    75  64  68 CALM      30.11S
PERU/GRISSOM   PTSUNNY   76  65  70 SW6       30.08R

$$
INZ028>050-291600-
CENTRAL INDIANA

CITY           SKY/WX    TMP DP  RH WIND       PRES   REMARKS
LAFAYETTE      CLOUDY    75  64  68 S3        30.07R
KOKOMO*        PTSUNNY   75  64  69 S8        30.09S
MUNCIE*        MOSUNNY   74  64  71 SW10      30.11S
INDIANAPOLIS   PTSUNNY   76  64  66 SW12      30.09S

$$
MIZ043>046-050>051-056>058-064>065-071>073-077>080-291600-
SOUTHWEST LOWER MICHIGAN

CITY           SKY/WX    TMP DP  RH WIND       PRES   REMARKS
BATTLE CREEK   LGT RAIN  64  61  90 CALM      30.13R FOG
BENTON HARBOR  HVY RAIN  63  61  93 SE8       30.08F FOG
COLDWATER*     CLOUDY    67  62  84 CALM      30.12R
HILLSDALE*     PTSUNNY   71  63  76 CALM      30.12F
HOLLAND        LGT RAIN  64  62  93 SE6       30.10F
GRAND RAPIDS   LGT RAIN  63  63 100 E6        30.12S FOG
KALAMAZOO      LGT RAIN  64  61  90 CALM      30.12S
STURGIS*       CLOUDY    66  63  88 CALM      30.11R
THREE RIVERS*  LGT RAIN  64  62  93 CALM      30.12R

$$
OHZ001>008-015>018-024>025-291600-
NORTHWEST OHIO

CITY           SKY/WX    TMP DP  RH WIND       PRES   REMARKS
DEFIANCE       PTSUNNY   72  60  66 CALM      30.12S
FINDLAY        PTSUNNY   72  62  71 SE3       30.12S
TOLEDO EXPRESS CLOUDY    69  61  75 SE3       30.12F
TOLEDO METCALF CLOUDY    72  60  66 SE3       30.14S
LIMA           PTSUNNY   74  62  66 S10       30.12F

$$
AND FOR LAKE MICHIGAN COASTAL AND OPEN LAKE BUOY OBSERVATIONS

STATION/POSITION TEMP    WIND        PRES    VSBY  WAVE
                 AIR SEA DIR/SP/G                  HT/PER
                 (F)     (DEG/KT/KT) (MB)    (MI)  (FT/S)
MICHIGAN CITY     64     100/  7/  8   N/A
BURNS HARBOR      65      80/  6/  9 1019.0R
SAINT JOSEPH      63      CALM  /  2 1020.0R
SOUTH LAKE BUOY   66 68  140/  8/ 10 1017.6F
4 MI NW BRIDGMAN  66 70  130/  8/ 10   N/A           1
MICHIGAN CITY     66 70  140/  6/  8   N/A           1

$$
&&


USA.gov is the U.S. government's official web portal to all federal, state and local government web resources and services.